Home > Weather > Eisenstadt > Past weeks

Flag for Austria Past Weather in Eisenstadt, Burgenland, Austria — Yesterday and Last 2 Weeks

Now
78 °F

Partly sunny.


Feels Like: 79 °F
Forecast: 60 / 80 °F
Wind: 6 mph from Southeast

Location: Eisenstadt

Current Time: May 27, 2016 at 2:27:17 PM

Latest Report: May 27, 2016 at 2:00 PM


Visibility: 9 mi

Pressure: 29.94 "Hg

Humidity: 53%

Dew Point: 60 °F

Location of EisenstadtLocation

Past Weather in Eisenstadt — Graph

°F

Eisenstadt Temperature Yesterday

Maximum temperature yesterday: 75 °F (at 6:00 PM)
Minimum temperature yesterday: 56 °F (at 3:00 AM)
Average temperature yesterday: 65 °F

High & Low Weather Summary for the Past Weeks

 TemperatureHumidityPressure
High80 °F (May 23, 4:00 PM)97% (May 12, 10:00 PM)30.13 "Hg (May 12, 10:00 PM)
Low45 °F (May 16, 5:00 AM)35% (May 17, 2:00 PM)29.32 "Hg (May 13, 5:00 AM)
Average60 °F66%29.86 "Hg
* Reported May 12 1:00 PM — May 27 1:00 PM, Eisenstadt, Weather by CustomWeather, © 2016

Note: Actual official high and low records may vary slightly from our data, if they occured in-between our weather recording intervals... More about our weather records

Advertising

Eisenstadt Weather History for the Previous 24 Hours

Scroll right to see more
 ConditionsComfort  
Time TempWeatherWind HumidityBarometerVisibility
1:00 PM
Fri, May 27
77 °FWarm.6 mph57%29.95 "HgN/A
12:00 PM75 °FMild.6 mph59%29.96 "HgN/A
11:00 AM72 °FMild.6 mph64%29.98 "HgN/A
10:00 AM68 °FMild.5 mph70%30.00 "HgN/A
9:00 AM66 °FMild.5 mph74%30.01 "HgN/A
8:00 AM63 °FPassing clouds.3 mph80%30.02 "Hg9 mi
7:00 AM59 °FScattered clouds.1 mph86%30.01 "Hg9 mi
6:00 AM56 °FSunny.2 mph91%30.01 "Hg12 mi
5:00 AM56 °FClear.3 mph92%30.01 "Hg12 mi
4:00 AM57 °FCool.3 mph89%30.00 "HgN/A
3:00 AM58 °FCool.2 mph87%30.00 "HgN/A
2:00 AM57 °FCool.2 mph88%30.01 "HgN/A
1:00 AM58 °FCool.3 mph87%30.01 "HgN/A
12:00 AM58 °FCool.3 mph85%30.01 "HgN/A
11:00 PM
Thu, May 26
59 °FClear.3 mph84%30.01 "Hg6 mi
10:00 PM61 °FCool.3 mph82%30.01 "HgN/A
9:00 PM64 °FMild.2 mph78%29.99 "HgN/A
8:00 PM69 °FPassing clouds.2 mph69%29.98 "Hg9 mi
7:00 PM73 °FMild.1 mph51%29.96 "HgN/A
6:00 PM75 °FMild.3 mph49%29.96 "HgN/A
5:00 PM74 °FPassing clouds.2 mph49%29.96 "Hg9 mi
4:00 PM74 °FMild.3 mph50%29.96 "HgN/A
3:00 PM73 °FMild.5 mph50%29.98 "HgN/A
2:00 PM72 °FPassing clouds.6 mph55%29.98 "Hg9 mi
Weather by CustomWeather, © 2016

See weather overviewHow to use our weather pages